Regional Weather Roundup
Issued by NWS Sioux Falls, SD

Home | Current Version | Previous Version | Text Only | Print | Product List | Glossary On
Versions: 1 2 3 4 5 6 7 8 9 10 11 12 13 14 15 16 17 18 19 20 21 22 23 24 25 26 27 28 29 30 31 32 33 34 35 36 37 38 39 40 41 42 43 44 45 46 47 48 49 50
000
ASUS43 KFSD 211110
RWRFSD

WEATHER ROUNDUP FOR SE SOUTH DAKOTA/SW MINNESOTA/NW IOWA
NATIONAL WEATHER SERVICE SIOUX FALLS SD
600 AM CDT TUE OCT 21 2014

NOTE: "FAIR" INDICATES FEW OR NO CLOUDS BELOW 12,000 FEET WITH NO
SIGNIFICANT WEATHER AND OR OBSTRUCTIONS TO VISIBILITY.


SDZ038>040-050-052>070-211200-
SOUTHEAST SOUTH DAKOTA

CITY           SKY/WX    TMP DP  RH WIND       PRES   REMARKS
CHAMBERLAIN    CLEAR     46  37  73 SE8       29.95S
HURON          CLEAR     49  36  61 SE12      29.99F
MADISON        FAIR      45  37  76 SE8       30.07S
MITCHELL       CLEAR     48  37  65 SE13      30.02F
SIOUX FALLS    CLEAR     38  35  89 CALM      30.09R
WINNER         FAIR      60  39  45 S22       29.92S
YANKTON        CLEAR     43  37  81 E8        30.07S
$$

MNZ071-072-080-081-089-090-097-098-211200-
SOUTHWEST MINNESOTA

CITY           SKY/WX    TMP DP  RH WIND       PRES   REMARKS
FAIRMONT       PTCLDY    34  28  80 CALM      30.12S
JACKSON        PTCLDY    36  32  87 E3        30.12R
LUVERNE        CLEAR     36  34  93 CALM      30.11R
MARSHALL       CLEAR     37  32  81 SE6       30.09S
MONTEVIDEO     CLEAR     36  36 100 S6        30.12R
PIPESTONE      CLEAR     45  37  76 SE5       30.09R
REDWOOD FALLS  PTCLDY    39  36  89 E5        30.12R
TRACY          PTCLDY    46  38  76 S8        30.11R
WINDOM         PTCLDY    37  36  93 CALM      30.12R
WORTHINGTON    CLEAR     36  34  93 SE3       30.12S
$$

IAZ001>003-012>014-020>022-031-032-NEZ013-014-SDZ071-211200-
NORTHWEST IOWA

CITY           SKY/WX    TMP DP  RH WIND       PRES   REMARKS
CHEROKEE       CLEAR     34  34 100 CALM      30.12R
DENISON        CLEAR     36  36 100 CALM      30.10R
ESTHERVILLE    CLEAR     32  30  92 CALM      30.12R
LE MARS        CLEAR     36  36 100 CALM      30.11R
ORANGE CITY    CLEAR     46  37  71 E3        30.11R
SHELDON        CLEAR     39  36  87 E7        30.10R
SIOUX CITY     CLEAR     38  36  92 E3        30.10S
SPENCER        CLEAR     31  29  92 CALM      30.12R
STORM LAKE     CLEAR     43  37  81 E5        30.12R
$$

ABBREVIATIONS USED IN REMARKS
   TC - TEMPERATURE IN CELSIUS
  WCI - WIND CHILL INDEX
   HX - HEAT INDEX
  VSB - VISIBILITY




USA.gov is the U.S. government's official web portal to all federal, state and local government web resources and services.